[[{"header":{"parameterUnit":"m.s-1","parameterCategory":1,"la1":30.2991,"la2":30.254,"lo1":-89.0895,"lo2":-89.0444,"dy":0.0017,"dx":0.0017,"nx":28,"ny":28,"refTime":"2025-05-20T03:00:00:Z","depth":0,"parameterNumber":2,"parameterNumberName":"U-component_of_WINDS"},"data":[0,0,0,0,0,0,0,0,0,0,0,0,0,0,0,0,0,0,0,0,0,0,0,0,0,0,0,0,0,0,0,0,0,0,0,0,0,0,0,0,0,0,0,0,0,0,0,0,0,0,0,0,0,0,0,0,0,0,0.5145,0.5147,0,0.5295,0.5297,0.5299,0.5319,0.5317,0.5316,0.5314,0.5475,0.548,0.5486,0,0,0,0,0,0,0,0,0,0,0,0,0,0.4882,0.4887,0.5145,0.5147,0.5149,0.5295,0.5297,0.5299,0.5319,0.5317,0.5315,0.5314,0.5473,0.5479,0.5486,0,0,0,0,0,0,0,0,0,0,0,0,0,0.5011,0.4889,0.5145,0.5176,0.518,0.5295,0.5297,0.53,0.5319,0.5317,0.5315,0.5313,0.5471,0.5479,0.5487,0.5582,0,0,0.5513,0.5516,0,0,0,0,0,0,0,0,0.5004,0.5021,0.517,0.5174,0.5179,0.5286,0.5263,0.5395,0.532,0.5267,0.5314,0.5312,0.5414,0.5427,0.546,0.559,0.5597,0.5514,0.5519,0.5522,0.5525,0,0,0,0,0,0,0,0.4995,0.5014,0.5205,0.5172,0.5178,0.5185,0.5201,0.5288,0.5351,0.5271,0.5273,0.529,0.5416,0.5452,0.5464,0.5599,0.5513,0.5521,0.5526,0.5529,0.5818,0.5821,0,0,0,0,0,0,0.4979,0.5007,0.52,0.5209,0.5084,0.5191,0.5209,0.5254,0.535,0.5362,0.5292,0.529,0.5439,0.5454,0.547,0.559,0.5522,0.553,0.5535,0.5816,0.5819,0.5822,0,0,0,0,0,0,0.4973,0.4996,0.5194,0.5108,0.5134,0.5198,0.5248,0.5258,0.5294,0.5365,0.5377,0.5316,0.5437,0.5458,0.5555,0.5596,0.5534,0.5542,0.5813,0.5817,0.582,0.583,0,0,0,0,0,0,0.4966,0.4994,0.5029,0.5109,0.5139,0.5274,0.5251,0.5262,0.5307,0.5307,0.5392,0.5404,0.5437,0.5542,0.5563,0.5606,0.5548,0.5809,0.5814,0.5819,0.5826,0.5834,0.584,0,0,0,0,0,0.4956,0.5026,0.5031,0.5054,0.5183,0.5276,0.5293,0.5329,0.531,0.5348,0.5394,0.5401,0.5587,0.5552,0.5575,0.5622,0.5807,0.5813,0.5819,0.5823,0.5832,0.584,0,0,0,0,0,0,0.4951,0.5037,0.5043,0.5141,0.5201,0.5279,0.5327,0.5337,0.5405,0.5402,0.5445,0.5464,0.556,0.56,0.5559,0.5721,0.5696,0.5707,0.5691,0.57,0.5707,0.5697,0.5555,0,0,0,0,0,0.4961,0.5027,0.51,0.5179,0.5209,0.5263,0.5304,0.5326,0.5391,0.5417,0.5471,0.5536,0.5609,0.5657,0.5728,0.5832,0.5852,0.5876,0.5883,0.5888,0.5898,0.5959,0.5971,0.5841,0.5841,0.5841,0,0,0.4983,0.5038,0.5078,0.5179,0.5229,0.5299,0.5284,0.5358,0.5411,0.5429,0.5524,0.5566,0.5641,0.5742,0.5789,0.5779,0.5938,0.5895,0.5899,0.5906,0.5966,0.5978,0.5989,0.5845,0.5844,0.5844,0,0,0.5059,0.5106,0.5179,0.5228,0.5302,0.5338,0.5355,0.5433,0.5461,0.5556,0.5572,0.5637,0.5761,0.5815,0.5859,0.5956,0.5967,0.5979,0.6016,0.6075,0.6085,0.6094,0.6132,0.6145,0.5988,0.5988,0.5988,0,0.5078,0.5182,0.5215,0.5289,0.5335,0.5353,0.5428,0.5475,0.557,0.5602,0.5588,0.5747,0.5798,0.5914,0.5938,0.5971,0.5995,0.597,0.608,0.609,0.6099,0.6136,0.615,0.5989,0.5989,0.5989,0.5988,0,0.5203,0.5275,0.5325,0.5414,0.5465,0.5539,0.5587,0.5635,0.5653,0.5691,0.5789,0.5852,0.5937,0.5966,0.5985,0.6085,0.6077,0.6071,0.6047,0.6112,0.6148,0.6162,0.5991,0.599,0.599,0.5989,0,0,0.5281,0.5388,0.5406,0.5448,0.5531,0.5589,0.5665,0.5747,0.5789,0.5854,0.5921,0.6027,0.6022,0.6072,0.6097,0.6148,0.6226,0.6137,0.6139,0.6154,0.6344,0.635,0.6365,0.6232,0.6234,0.6237,0.6339,0,0.5369,0.5503,0.5536,0.5652,0.5721,0.574,0.5807,0.5867,0.5904,0.597,0.6013,0.6088,0.6075,0.6105,0.6157,0.6205,0.6265,0.6198,0.6298,0.6301,0.6281,0.6383,0.6389,0.6482,0.6352,0.6355,0.6356,0,0.5489,0.5556,0.5678,0.5754,0.5785,0.5844,0.5923,0.5984,0.6054,0.6078,0.6134,0.6154,0.6237,0.6207,0.6325,0.6278,0.6322,0.6352,0.6356,0.6369,0.6334,0.6402,0.6513,0.6528,0.6378,0.6376,0.6375,0,0.5538,0.5657,0.5747,0.5782,0.5872,0.5914,0.5954,0.6021,0.6069,0.6139,0.6171,0.625,0.6294,0.6356,0.6398,0.6372,0.6513,0.6486,0.6539,0.6538,0.657,0.6567,0.6692,0.6593,0.6592,0.6592,0.6592,0,0.5634,0.5709,0.577,0.5825,0.5911,0.5949,0.6034,0.6075,0.6134,0.62,0.6221,0.6283,0.6333,0.6403,0.6437,0.6531,0.655,0.6574,0.6583,0.6574,0.6571,0.6604,0.66,0.6596,0.6595,0.6594,0.6594,0,0.5703,0.5746,0.5846,0.5923,0.5944,0.6004,0.6072,0.6128,0.6166,0.6249,0.6271,0.6332,0.6415,0.6463,0.6568,0.6591,0.6696,0.67,0.6672,0.6677,0.6728,0.6723,0.688,0.6904,0.6786,0.6787,0.6788,0,0.5763,0.5821,0.5904,0.5949,0.5989,0.6061,0.611,0.615,0.6201,0.6285,0.6332,0.6416,0.6485,0.6618,0.6673,0.6754,0.6763,0.6812,0.6775,0.6765,0.6767,0.6764,0.6772,0.6819,0.682,0.6821,0.6822,0,0.5865,0.5884,0.5952,0.6029,0.6086,0.6149,0.6211,0.6247,0.6299,0.6355,0.6439,0.6493,0.66,0.6685,0.6771,0.6815,0.6829,0.6832,0.685,0.6842,0.6825,0.6838,0.6693,0.6829,0.6829,0.6828,0.6828,0.6827,0.5934,0.5987,0.6055,0.6131,0.6182,0.624,0.6297,0.6342,0.6412,0.6502,0.6522,0.6611,0.6682,0.6799,0.6845,0.6918,0.691,0.6933,0.694,0.6946,0.6949,0.6811,0.6933,0.6933,0.6933,0.6933,0.6933,0,0.604,0.6084,0.6154,0.624,0.6301,0.6305,0.6375,0.6427,0.6504,0.6568,0.6636,0.6734,0.6817,0.6878,0.6963,0.701,0.7019,0.7031,0.703,0.704,0.695,0.6929,0.7023,0.7023,0.7023,0.7023,0.7023,0.7023,0.6102,0.6194,0.6221,0.6339,0.6384,0.647,0.651,0.6565,0.6616,0.6725,0.6793,0.6831,0.6896,0.6985,0.7062,0.7079,0.711,0.7123,0.714,0.7056,0.7046,0.7037,0.7017,0.7128,0.7129,0.7225,0.7226,0.7226]},{"header":{"parameterUnit":"m.s-1","parameterCategory":1,"la1":30.2991,"la2":30.254,"lo1":-89.0895,"lo2":-89.0444,"dy":0.0017,"dx":0.0017,"nx":28,"ny":28,"refTime":"2025-05-20T03:00:00:Z","depth":0,"parameterNumber":3,"parameterNumberName":"V-component_of_WINDS"},"data":[0,0,0,0,0,0,0,0,0,0,0,0,0,0,0,0,0,0,0,0,0,0,0,0,0,0,0,0,0,0,0,0,0,0,0,0,0,0,0,0,0,0,0,0,0,0,0,0,0,0,0,0,0,0,0,0,0,0,-0.137,-0.1369,0,-0.1303,-0.1303,-0.1302,-0.1323,-0.1324,-0.1326,-0.1327,-0.1259,-0.1256,-0.1253,0,0,0,0,0,0,0,0,0,0,0,0,0,-0.1518,-0.1516,-0.137,-0.1369,-0.1368,-0.1304,-0.1303,-0.1302,-0.1323,-0.1324,-0.1326,-0.1328,-0.126,-0.1256,-0.1253,0,0,0,0,0,0,0,0,0,0,0,0,0,-0.1453,-0.1515,-0.137,-0.1371,-0.137,-0.1304,-0.1303,-0.1301,-0.1322,-0.1324,-0.1327,-0.1329,-0.1261,-0.1257,-0.1252,-0.1181,0,0,-0.1238,-0.1236,0,0,0,0,0,0,0,0,-0.1457,-0.1448,-0.1372,-0.1371,-0.137,-0.1324,-0.133,-0.1261,-0.1322,-0.1341,-0.1327,-0.133,-0.1279,-0.1273,-0.1256,-0.1177,-0.1174,-0.1237,-0.1235,-0.1232,-0.1231,0,0,0,0,0,0,0,-0.1461,-0.1451,-0.1344,-0.1371,-0.137,-0.1376,-0.1369,-0.1317,-0.1299,-0.1339,-0.134,-0.1332,-0.1279,-0.126,-0.1254,-0.1173,-0.1237,-0.1233,-0.123,-0.1229,-0.1038,-0.1036,0,0,0,0,0,0,-0.1466,-0.1454,-0.1346,-0.1342,-0.142,-0.1371,-0.1364,-0.1336,-0.1299,-0.1296,-0.1331,-0.1334,-0.1267,-0.126,-0.1252,-0.117,-0.1233,-0.1228,-0.1225,-0.1041,-0.1038,-0.1036,0,0,0,0,0,0,-0.1469,-0.1456,-0.1349,-0.1398,-0.1385,-0.1367,-0.1336,-0.1334,-0.1315,-0.1293,-0.129,-0.1315,-0.1269,-0.1259,-0.1199,-0.1167,-0.1226,-0.1222,-0.1043,-0.104,-0.1037,-0.1002,0,0,0,0,0,0,-0.1473,-0.1457,-0.1429,-0.1398,-0.1382,-0.1296,-0.1334,-0.1331,-0.1307,-0.131,-0.1277,-0.1274,-0.1269,-0.1206,-0.1195,-0.1162,-0.1218,-0.1046,-0.1042,-0.1038,-0.1006,-0.0998,-0.0991,0,0,0,0,0,-0.1479,-0.1421,-0.1427,-0.1414,-0.1346,-0.1294,-0.1285,-0.1282,-0.1304,-0.1277,-0.1263,-0.1275,-0.1172,-0.12,-0.1187,-0.1152,-0.1048,-0.1043,-0.1038,-0.1009,-0.0999,-0.0991,0,0,0,0,0,0,-0.1448,-0.1416,-0.1423,-0.1353,-0.1326,-0.1298,-0.1262,-0.1271,-0.1236,-0.1241,-0.1238,-0.123,-0.117,-0.1155,-0.1186,-0.1084,-0.1114,-0.1106,-0.1096,-0.1086,-0.1079,-0.1085,-0.1214,0,0,0,0,0,-0.1433,-0.1392,-0.1367,-0.1308,-0.1294,-0.1281,-0.1257,-0.1257,-0.1229,-0.1218,-0.1199,-0.1172,-0.1134,-0.1109,-0.1072,-0.1003,-0.0998,-0.0973,-0.0966,-0.096,-0.0954,-0.092,-0.091,-0.1019,-0.1019,-0.1019,0,0,-0.1401,-0.1379,-0.1354,-0.1301,-0.128,-0.124,-0.1271,-0.1225,-0.1196,-0.1211,-0.1155,-0.1141,-0.111,-0.1047,-0.1018,-0.1032,-0.0922,-0.0953,-0.0949,-0.0946,-0.0914,-0.0904,-0.0895,-0.1016,-0.1016,-0.1017,0,0,-0.1325,-0.1302,-0.1253,-0.1232,-0.12,-0.1192,-0.118,-0.1151,-0.1143,-0.1086,-0.1098,-0.1063,-0.0996,-0.0976,-0.0956,-0.0876,-0.0887,-0.0864,-0.0825,-0.0793,-0.0784,-0.0777,-0.0751,-0.0742,-0.0857,-0.0857,-0.0857,0,-0.129,-0.1229,-0.1226,-0.1182,-0.116,-0.1172,-0.1123,-0.1103,-0.1061,-0.1046,-0.1063,-0.0983,-0.0962,-0.0897,-0.0878,-0.086,-0.0849,-0.0868,-0.0785,-0.0778,-0.0771,-0.0747,-0.0737,-0.0855,-0.0855,-0.0855,-0.0856,0,-0.119,-0.1148,-0.1112,-0.1073,-0.1046,-0.1,-0.0991,-0.0965,-0.0968,-0.0959,-0.0904,-0.088,-0.0842,-0.0825,-0.0826,-0.0761,-0.0771,-0.0786,-0.0817,-0.0758,-0.0736,-0.0726,-0.0852,-0.0852,-0.0853,-0.0854,0,0,-0.1091,-0.1053,-0.104,-0.1025,-0.0992,-0.096,-0.0915,-0.0878,-0.0858,-0.0828,-0.0793,-0.0738,-0.0754,-0.0732,-0.0731,-0.0702,-0.0645,-0.0721,-0.0721,-0.0711,-0.0575,-0.0566,-0.0555,-0.0651,-0.0649,-0.0648,-0.0579,0,-0.1014,-0.0936,-0.0934,-0.0863,-0.0826,-0.0838,-0.08,-0.0777,-0.0768,-0.0736,-0.0726,-0.0689,-0.071,-0.0697,-0.0669,-0.0657,-0.0618,-0.0662,-0.062,-0.0619,-0.063,-0.0543,-0.0532,-0.0468,-0.057,-0.0568,-0.0567,0,-0.0914,-0.0884,-0.081,-0.0787,-0.0771,-0.0737,-0.0705,-0.0673,-0.0648,-0.0644,-0.0621,-0.0626,-0.0583,-0.0613,-0.0555,-0.0586,-0.0569,-0.0561,-0.0558,-0.0556,-0.0591,-0.0541,-0.0447,-0.0439,-0.0552,-0.0554,-0.0555,0,-0.0854,-0.0795,-0.0744,-0.073,-0.07,-0.0677,-0.0663,-0.064,-0.0619,-0.0591,-0.0578,-0.0545,-0.0527,-0.0502,-0.0499,-0.0521,-0.0442,-0.0471,-0.0439,-0.044,-0.0424,-0.0425,-0.0328,-0.0408,-0.0408,-0.0408,-0.0408,0,-0.0771,-0.0726,-0.0718,-0.0687,-0.0638,-0.0636,-0.0588,-0.0576,-0.0557,-0.0525,-0.0533,-0.0503,-0.0499,-0.0469,-0.0465,-0.042,-0.0411,-0.0408,-0.0409,-0.0409,-0.041,-0.0399,-0.0405,-0.0405,-0.0406,-0.0406,-0.0407,0,-0.0696,-0.0688,-0.0635,-0.0612,-0.0605,-0.0571,-0.0552,-0.0523,-0.0516,-0.0476,-0.0467,-0.0455,-0.042,-0.0414,-0.0372,-0.037,-0.0317,-0.032,-0.0326,-0.0327,-0.0297,-0.0301,-0.0192,-0.018,-0.0264,-0.0264,-0.0263,0,-0.0644,-0.0611,-0.0585,-0.0565,-0.0551,-0.0518,-0.0497,-0.0495,-0.0473,-0.0445,-0.042,-0.0387,-0.036,-0.0304,-0.0292,-0.0262,-0.0266,-0.023,-0.0261,-0.0265,-0.027,-0.0273,-0.0271,-0.0225,-0.0224,-0.0223,-0.0222,0,-0.0555,-0.0554,-0.0524,-0.0494,-0.0469,-0.0445,-0.0422,-0.0405,-0.04,-0.0376,-0.0341,-0.0321,-0.028,-0.0247,-0.0217,-0.0205,-0.0214,-0.0213,-0.0204,-0.0206,-0.0212,-0.0212,-0.0313,-0.0215,-0.0216,-0.0217,-0.0217,-0.0217,-0.0492,-0.0465,-0.0444,-0.0411,-0.0394,-0.0374,-0.0347,-0.0337,-0.0308,-0.0275,-0.0275,-0.0238,-0.0218,-0.0179,-0.0164,-0.0136,-0.0148,-0.0135,-0.0132,-0.013,-0.0129,-0.0215,-0.013,-0.0131,-0.0131,-0.0131,-0.0131,0,-0.0407,-0.0394,-0.0364,-0.0334,-0.0309,-0.0319,-0.0295,-0.0274,-0.0242,-0.0222,-0.0196,-0.0158,-0.0127,-0.0114,-0.0085,-0.0065,-0.0069,-0.0058,-0.006,-0.0058,-0.0118,-0.013,-0.0055,-0.0055,-0.0055,-0.0055,-0.0055,-0.0055,-0.0359,-0.0314,-0.0311,-0.0259,-0.0247,-0.0211,-0.0197,-0.0179,-0.0164,-0.0121,-0.0096,-0.0088,-0.0071,-0.0041,-0.0015,-0.0012,-0.0002,0.001,0.0011,-0.0046,-0.0053,-0.0061,-0.0072,0.0013,0.0013,0.0068,0.0069,0.0069]}]]